STARLINK-33737, 63456

Orbit data source: Space-Track

STARLINK-33737, 63456 is a payload satellite owned by SpaceX/Seattle (US) in LEO that was launched on Fri, 04 Apr 2025 UTC via an FALCON 9 launch vehicle from the Air Force Western Test Range (AFWTR). Payload-class satellites include a variety of spacecraft equipped with specific instruments for various scientific and technological missions. These include communications satellites like Starlink; space stations such as the ISS; scientific satellites like the Hubble; Earth observation satellites from companies like Planet Labs, Umbra, and HawkEye 360; GPS; miniature CubeSats for education and research; and military/defense satellites.

Loading next visibility...
Identifier
63456, 2025-069Z
Orbit
LEO
Country
Flag of USUS
Related business
Manufacturer
SpaceX/Seattle
Mission
Operational Commercial Communications
Bus & Motor
STARLINK V2MO, Unknown motor
Mass
575 kg wet, ~530 kg dry
Launch date (UTC)
2025-04-04 (1 year ago)
Launch vehicle
FALCON 9
Launch site
Air Force Western Test Range (AFWTR)
Object type
Payload
Rocket body
Debris
Shape & HBR
Box + 2 Pan, 17.7 m
Radar Cross Section
36.964 m², Large (>1 m²)

Expand to show TLE details & history
Last TLE update: 23 hours ago

TLE from 23 hours ago
0 STARLINK-33737
1 63456U 25069Z   26144.72761899  .00025596  00000-0  59533-3 0  9997
2 63456  53.1597 146.6281 0001302  80.6312 279.4841 15.42177499 64970
Epoch: 2026-05-24T17:27Z
TLE epoch observation values (Epoch: 2026-05-24T17:27:46.280Z)
Latitude
-0.00005°
Longitude
2.35962°
Altitude
440.442 km
Speed
7.649 km/s
True Right ascension
09h 46m 30s
True Declination
0° 00' 00"
Sunlit
Object was in daylight at epoch
Visualization orbit readout
Latitude
Unknown
Longitude
Unknown
Altitude
Unknown
Speed
Unknown
Apparent Right ascension
Unknown
Apparent Declination
Unknown
Sunlit
N/A
Visualization observer readout
Local Sidereal Time
02:10:26
Azimuth
Unknown
Elevation
Unknown
Doppler factor
Unknown
Orbital elements
Apogee altitude
440.83 km
Perigee altitude
439.054 km
Semi-major axis
6,818.079 km
Eccentricity
0.00013
Inclination
53.1597°
RAAN
146.6281°
Arg. of periapsis
80.6312°
True anomaly
279.46938°
Mean anomaly
279.4841°
Eccentric anomaly
279.47674°
Mean motion
3.85523 °/min
Orbital period
93.38 mins
BSTAR
0.00059533
Loading maneuver chart data...
Computing Atmospheric mass density...
Loading historical data...
Loading historical data...
Loading historical data...
Loading historical data...
Loading historical data...
Loading historical data...
Loading historical data...

Documentation

Showing up to 5 results
|